Location: Anciles
(42.5833°N, 0.5167°E)
Time: 12:45:31
(UTC+00:00)

USA 267 - Pass Details

Date: 10 December 2019
Orbit: 1100 x 1107 km, 123.0° (Epoch: 17 January)

Event Time Altitude Azimuth Distance (km) Brightness Sun altitude
Rises 17:48:53 0° 139° (SE) 3,903 5.9 -15.0°
Reaches altitude 10° 17:51:23 10° 142° (SE) 2,948 5.3 -15.4°
Maximum altitude 17:57:51 67° 225° (SW) 1,183 3.6 -16.5°
Drops below altitude 10° 18:04:22 10° 307° (NW) 2,962 6.0 -17.7°
Sets 18:06:53 0° 311° (NW) 3,923 6.7 -18.1°
